| time (UTC) | temp C | wind direction | speed KPH | gust KPH | rain 1hr cm | rain 24hr cm | rain mn cm | humidity % | barometer mb |
| 20260906155500 | 35 | 7 | 4.8 | 8.0 | 0.00 | 0.00 | 0.00 | 49 | 1011.4 |
| 20260906155000 | 35 | 311 | 6.4 | 9.7 | 0.00 | 0.00 | 0.00 | 52 | 1011.3 |
| 20260906154500 | 34 | 72 | 3.2 | 9.7 | 0.00 | 0.00 | 0.00 | 51 | 1011.3 |
| 20260906154000 | 34 | 1 | 3.2 | 9.7 | 0.00 | 0.00 | 0.00 | 52 | 1011.4 |
| 20260906153500 | 34 | 348 | 6.4 | 9.7 | 0.00 | 0.00 | 0.00 | 52 | 1011.4 |
| 20260906153000 | 33 | 330 | 3.2 | 9.7 | 0.00 | 0.00 | 0.00 | 55 | 1011.4 |
| 20260906152500 | 33 | 353 | 6.4 | 8.0 | 0.00 | 0.00 | 0.00 | 50 | 1011.3 |
| 20260906152000 | 33 | 37 | 4.8 | 8.0 | 0.00 | 0.00 | 0.00 | 53 | 1011.3 |
| 20260906151500 | 33 | 24 | 4.8 | 9.7 | 0.00 | 0.00 | 0.00 | 53 | 1011.3 |
| 20260906151000 | 33 | 38 | 6.4 | 9.7 | 0.00 | 0.00 | 0.00 | 57 | 1011.4 |
| 20260906150500 | 32 | 323 | 3.2 | 6.4 | 0.00 | 0.00 | 0.00 | 61 | 1011.4 |
| 20260906150000 | 32 | 353 | 3.2 | 6.4 | 0.00 | 0.00 | 0.00 | 60 | 1011.3 |
| 20260906145500 | 32 | 33 | 3.2 | 6.4 | 0.00 | 0.00 | 0.00 | 62 | 1011.2 |
| 20260906145001 | 32 | 17 | 4.8 | 6.4 | 0.00 | 0.00 | 0.00 | 62 | 1011.2 |
| 20260906144500 | 31 | 324 | 1.6 | 6.4 | 0.00 | 0.00 | 0.00 | 62 | 1011.1 |
| 20260906144000 | 31 | 341 | 4.8 | 8.0 | 0.00 | 0.00 | 0.00 | 66 | 1011.2 |
| 20260906143500 | 31 | 342 | 6.4 | 8.0 | 0.00 | 0.00 | 0.00 | 63 | 1011.2 |
| 20260906143000 | 31 | 321 | 3.2 | 6.4 | 0.00 | 0.00 | 0.00 | 63 | 1011.2 |
| 20260906142500 | 31 | 29 | 3.2 | 6.4 | 0.00 | 0.00 | 0.00 | 68 | 1011.1 |
| 20260906142000 | 30 | 262 | 1.6 | 4.8 | 0.00 | 0.00 | 0.00 | 75 | 1011.2 |
| 20260906141500 | 30 | 215 | 1.6 | 4.8 | 0.00 | 0.00 | 0.00 | 70 | 1011.2 |
| 20260906141000 | 30 | 273 | 3.2 | 4.8 | 0.00 | 0.00 | 0.00 | 72 | 1011.1 |
| 20260906140500 | 29 | 291 | 3.2 | 4.8 | 0.00 | 0.00 | 0.00 | 75 | 1011.0 |
| 20260906140000 | 29 | 209 | 3.2 | 4.8 | 0.00 | 0.00 | 0.00 | 77 | 1011.0 |
| 20260906135500 | 28 | 279 | 3.2 | 4.8 | 0.00 | 0.00 | 0.00 | 77 | 1011.0 |
| 20260906135000 | 28 | 243 | 3.2 | 6.4 | 0.00 | 0.00 | 0.00 | 78 | 1011.0 |
| 20260906134500 | 28 | 240 | 4.8 | 6.4 | 0.00 | 0.00 | 0.00 | 81 | 1011.0 |
| 20260906134000 | 28 | 288 | 4.8 | 6.4 | 0.00 | 0.00 | 0.00 | 82 | 1011.0 |
| 20260906133500 | 27 | 286 | 3.2 | 4.8 | 0.00 | 0.00 | 0.00 | 83 | 1010.9 |
| 20260906133000 | 27 | 280 | 3.2 | 4.8 | 0.00 | 0.00 | 0.00 | 86 | 1010.9 |
| 20260906132500 | 27 | 192 | 1.6 | 4.8 | 0.00 | 0.00 | 0.00 | 85 | 1010.8 |
| 20260906132001 | 27 | 271 | 1.6 | 4.8 | 0.00 | 0.00 | 0.00 | 86 | 1010.7 |
| 20260906131500 | 26 | 275 | 3.2 | 3.2 | 0.00 | 0.00 | 0.00 | 88 | 1010.7 |
| 20260906131000 | 26 | 251 | 3.2 | 3.2 | 0.00 | 0.00 | 0.00 | 88 | 1010.6 |
| 20260906130500 | 26 | 260 | 1.6 | 1.6 | 0.00 | 0.00 | 0.00 | 88 | 1010.6 |
| 20260906130000 | 26 | 64 | 1.6 | 1.6 | 0.00 | 0.00 | 0.00 | 89 | 1010.5 |
| 20260906125500 | 26 | 93 | 1.6 | 3.2 | 0.00 | 0.00 | 0.00 | 90 | 1010.4 |
| 20260906125000 | 25 | 111 | 1.6 | 3.2 | 0.00 | 0.00 | 0.00 | 92 | 1010.4 |
| 20260906124501 | 25 | 166 | 1.6 | 3.2 | 0.00 | 0.00 | 0.00 | 92 | 1010.3 |
| 20260906124000 | 25 | 95 | 0.0 | 3.2 | 0.00 | 0.00 | 0.00 | 93 | 1010.2 |
| 20260906123500 | 25 | 9 | 1.6 | 3.2 | 0.00 | 0.00 | 0.00 | 93 | 1010.1 |
| 20260906123000 | 25 | 44 | 0.0 | 1.6 | 0.00 | 0.00 | 0.00 | 94 | 1010.0 |
| 20260906122500 | 24 | 85 | 0.0 | 3.2 | 0.00 | 0.00 | 0.00 | 94 | 1009.8 |
| 20260906122000 | 24 | 176 | 1.6 | 3.2 | 0.00 | 0.00 | 0.00 | 94 | 1009.7 |
| 20260906121500 | 23 | 129 | 1.6 | 3.2 | 0.00 | 0.00 | 0.00 | 94 | 1009.7 |
| 20260906121000 | 23 | 179 | 1.6 | 1.6 | 0.00 | 0.00 | 0.00 | 94 | 1009.6 |
| 20260906120500 | 23 | 161 | 1.6 | 1.6 | 0.00 | 0.00 | 0.00 | 94 | 1009.5 |
| 20260906120000 | 23 | 46 | 0.0 | 1.6 | 0.00 | 0.00 | 0.00 | 94 | 1009.4 |
| 20260906115500 | 23 | 355 | 1.6 | 1.6 | 0.00 | 0.00 | 0.00 | 93 | 1009.3 |
| 20260906115000 | 23 | 247 | 1.6 | 1.6 | 0.00 | 0.00 | 0.00 | 94 | 1009.3 |
| 20260906114500 | 23 | 300 | 1.6 | 1.6 | 0.00 | 0.00 | 0.00 | 94 | 1009.2 |
| 20260906114000 | 23 | 296 | 1.6 | 3.2 | 0.00 | 0.00 | 0.00 | 94 | 1009.1 |
| 20260906113500 | 23 | 11 | 1.6 | 3.2 | 0.00 | 0.00 | 0.00 | 94 | 1009.1 |
| 20260906113000 | 23 | 360 | 1.6 | 4.8 | 0.00 | 0.00 | 0.00 | 94 | 1009.0 |
| 20260906112500 | 23 | 236 | 1.6 | 6.4 | 0.00 | 0.00 | 0.00 | 94 | 1009.0 |
| 20260906112000 | 23 | 203 | 3.2 | 6.4 | 0.00 | 0.00 | 0.00 | 94 | 1008.9 |
| 20260906111500 | 23 | 202 | 4.8 | 6.4 | 0.00 | 0.00 | 0.00 | 94 | 1008.9 |
| 20260906111000 | 23 | 178 | 1.6 | 3.2 | 0.00 | 0.00 | 0.00 | 94 | 1008.8 |
| 20260906110500 | 23 | 188 | 1.6 | 4.8 | 0.00 | 0.00 | 0.00 | 94 | 1008.8 |
| 20260906110000 | 23 | 241 | 3.2 | 4.8 | 0.00 | 0.00 | 0.00 | 94 | 1008.8 |
| 20260906105500 | 23 | 245 | 3.2 | 4.8 | 0.00 | 0.00 | 0.00 | 93 | 1008.7 |
| 20260906105000 | 23 | 269 | 1.6 | 4.8 | 0.00 | 0.00 | 0.00 | 93 | 1008.7 |
| 20260906104500 | 23 | 280 | 1.6 | 3.2 | 0.00 | 0.00 | 0.00 | 93 | 1008.6 |
| 20260906104001 | 23 | 309 | 3.2 | 4.8 | 0.00 | 0.00 | 0.00 | 93 | 1008.7 |
| 20260906103500 | 23 | 273 | 3.2 | 4.8 | 0.00 | 0.00 | 0.00 | 93 | 1008.7 |
| 20260906103000 | 23 | 271 | 3.2 | 4.8 | 0.00 | 0.00 | 0.00 | 92 | 1008.7 |
| 20260906102500 | 23 | 323 | 3.2 | 4.8 | 0.00 | 0.00 | 0.00 | 92 | 1008.7 |
| 20260906102000 | 24 | 309 | 3.2 | 3.2 | 0.00 | 0.00 | 0.00 | 93 | 1008.6 |
| 20260906101500 | 23 | 324 | 1.6 | 1.6 | 0.00 | 0.00 | 0.00 | 93 | 1008.7 |
| 20260906101000 | 23 | 332 | 1.6 | 1.6 | 0.00 | 0.00 | 0.00 | 92 | 1008.7 |
| 20260906100500 | 24 | 8 | 0.0 | 4.8 | 0.00 | 0.00 | 0.00 | 92 | 1008.7 |
| 20260906100000 | 24 | 205 | 1.6 | 4.8 | 0.00 | 0.00 | 0.00 | 92 | 1008.7 |
| 20260906095500 | 24 | 207 | 1.6 | 1.6 | 0.00 | 0.00 | 0.00 | 92 | 1008.7 |
| 20260906095000 | 24 | 150 | 1.6 | 4.8 | 0.00 | 0.00 | 0.00 | 92 | 1008.7 |
| 20260906094500 | 24 | 18 | 1.6 | 4.8 | 0.00 | 0.00 | 0.00 | 92 | 1008.7 |
| 20260906094000 | 24 | 31 | 4.8 | 4.8 | 0.00 | 0.00 | 0.00 | 92 | 1008.6 |
| 20260906093501 | 24 | 62 | 1.6 | 4.8 | 0.00 | 0.00 | 0.00 | 92 | 1008.6 |
| 20260906093000 | 24 | 56 | 3.2 | 4.8 | 0.00 | 0.00 | 0.00 | 92 | 1008.6 |
| 20260906092500 | 24 | 136 | 3.2 | 4.8 | 0.00 | 0.00 | 0.00 | 92 | 1008.6 |
| 20260906092000 | 24 | 73 | 3.2 | 4.8 | 0.00 | 0.00 | 0.00 | 92 | 1008.5 |
| 20260906091500 | 24 | 71 | 4.8 | 4.8 | 0.00 | 0.00 | 0.00 | 92 | 1008.6 |
| 20260906091000 | 24 | 122 | 3.2 | 4.8 | 0.00 | 0.00 | 0.00 | 92 | 1008.5 |
| 20260906090500 | 24 | 152 | 3.2 | 4.8 | 0.00 | 0.00 | 0.00 | 92 | 1008.5 |
| 20260906090000 | 24 | 179 | 4.8 | 4.8 | 0.00 | 0.00 | 0.00 | 92 | 1008.4 |
| 20260906085500 | 24 | 166 | 3.2 | 4.8 | 0.00 | 0.00 | 0.00 | 92 | 1008.3 |
| 20260906085000 | 24 | 171 | 3.2 | 4.8 | 0.00 | 0.00 | 0.00 | 91 | 1008.2 |
| 20260906084500 | 24 | 179 | 3.2 | 3.2 | 0.00 | 0.00 | 0.00 | 91 | 1008.2 |
| 20260906084000 | 24 | 100 | 3.2 | 4.8 | 0.00 | 0.00 | 0.00 | 91 | 1008.1 |
| 20260906083500 | 24 | 135 | 1.6 | 4.8 | 0.00 | 0.00 | 0.00 | 90 | 1008.1 |
| 20260906083000 | 25 | 155 | 3.2 | 4.8 | 0.00 | 0.00 | 0.00 | 89 | 1008.2 |
| 20260906082500 | 25 | 155 | 1.6 | 1.6 | 0.00 | 0.00 | 0.00 | 89 | 1008.1 |
| 20260906082000 | 25 | 267 | 0.0 | 3.2 | 0.00 | 0.00 | 0.00 | 89 | 1008.1 |
| 20260906081500 | 25 | 270 | 1.6 | 3.2 | 0.00 | 0.00 | 0.00 | 89 | 1008.0 |
| 20260906081000 | 25 | 309 | 3.2 | 3.2 | 0.00 | 0.00 | 0.00 | 89 | 1007.9 |
| 20260906080500 | 25 | 326 | 3.2 | 3.2 | 0.00 | 0.00 | 0.00 | 89 | 1007.8 |
| 20260906080000 | 25 | 314 | 3.2 | 3.2 | 0.00 | 0.00 | 0.00 | 90 | 1007.8 |
| 20260906075500 | 25 | 277 | 3.2 | 3.2 | 0.00 | 0.00 | 0.00 | 90 | 1007.8 |
| 20260906075000 | 25 | 245 | 1.6 | 3.2 | 0.00 | 0.00 | 0.00 | 90 | 1007.9 |
| 20260906074500 | 25 | 311 | 3.2 | 3.2 | 0.00 | 0.00 | 0.00 | 90 | 1007.9 |
| 20260906074000 | 25 | 290 | 3.2 | 4.8 | 0.00 | 0.00 | 0.00 | 91 | 1007.9 |
| 20260906073500 | 25 | 275 | 3.2 | 6.4 | 0.00 | 0.00 | 0.00 | 90 | 1008.1 |
| 20260906073000 | 25 | 283 | 3.2 | 6.4 | 0.00 | 0.00 | 0.00 | 91 | 1008.0 |
| 20260906072500 | 25 | 255 | 4.8 | 4.8 | 0.00 | 0.00 | 0.00 | 90 | 1008.1 |
| 20260906072000 | 25 | 300 | 3.2 | 6.4 | 0.00 | 0.00 | 0.00 | 90 | 1008.1 |
| 20260906071500 | 25 | 328 | 4.8 | 6.4 | 0.00 | 0.00 | 0.00 | 91 | 1008.1 |
| 20260906071000 | 25 | 347 | 3.2 | 4.8 | 0.00 | 0.00 | 0.00 | 91 | 1008.1 |
| 20260906070500 | 25 | 348 | 3.2 | 4.8 | 0.00 | 0.00 | 0.00 | 91 | 1008.1 |
| 20260906070000 | 25 | 6 | 1.6 | 4.8 | 0.00 | 0.00 | 0.00 | 91 | 1008.2 |
| 20260906065500 | 25 | 325 | 3.2 | 8.0 | 0.00 | 0.00 | 0.00 | 90 | 1008.3 |
| 20260906065000 | 25 | 205 | 3.2 | 8.0 | 0.00 | 0.00 | 0.00 | 90 | 1008.4 |
| 20260906064500 | 25 | 227 | 4.8 | 4.8 | 0.00 | 0.00 | 0.00 | 90 | 1008.4 |
| 20260906064000 | 25 | 227 | 1.6 | 1.6 | 0.00 | 0.00 | 0.00 | 90 | 1008.4 |
| 20260906063500 | 25 | 273 | 1.6 | 3.2 | 0.00 | 0.00 | 0.00 | 89 | 1008.4 |
| 20260906063000 | 25 | 305 | 1.6 | 3.2 | 0.00 | 0.00 | 0.00 | 89 | 1008.5 |
| 20260906062500 | 25 | 303 | 1.6 | 3.2 | 0.00 | 0.00 | 0.00 | 88 | 1008.5 |
| 20260906062000 | 26 | 318 | 1.6 | 1.6 | 0.00 | 0.00 | 0.00 | 88 | 1008.6 |
| 20260906061500 | 26 | 39 | 1.6 | 1.6 | 0.00 | 0.00 | 0.00 | 88 | 1008.7 |
| 20260906061000 | 26 | 38 | 1.6 | 3.2 | 0.00 | 0.00 | 0.00 | 88 | 1008.7 |
| 20260906060500 | 26 | 142 | 1.6 | 3.2 | 0.00 | 0.00 | 0.00 | 88 | 1008.7 |
| 20260906060000 | 26 | 124 | 1.6 | 3.2 | 0.00 | 0.00 | 0.00 | 89 | 1008.6 |
| 20260906055500 | 25 | 2 | 0.0 | 4.8 | 0.00 | 0.00 | 0.00 | 90 | 1008.7 |
| 20260906055000 | 25 | 357 | 1.6 | 4.8 | 0.00 | 0.00 | 0.00 | 90 | 1008.7 |
| 20260906054500 | 26 | 355 | 3.2 | 4.8 | 0.00 | 0.00 | 0.00 | 90 | 1008.6 |
| 20260906054000 | 26 | 156 | 1.6 | 14.5 | 0.00 | 0.00 | 0.00 | 90 | 1008.7 |
| 20260906053500 | 25 | 200 | 4.8 | 14.5 | 0.00 | 0.00 | 0.00 | 90 | 1008.6 |
| 20260906053000 | 25 | 191 | 14.5 | 14.5 | 0.00 | 0.00 | 0.00 | 90 | 1008.7 |
| 20260906052500 | 25 | 233 | 1.6 | 1.6 | 0.00 | 0.00 | 0.00 | 90 | 1008.5 |
| 20260906052000 | 26 | 214 | 1.6 | 3.2 | 0.00 | 0.00 | 0.00 | 89 | 1008.5 |
| 20260906051500 | 26 | 221 | 1.6 | 3.2 | 0.00 | 0.00 | 0.00 | 89 | 1008.4 |
| 20260906051005 | 26 | 240 | 1.6 | 3.2 | 0.00 | 0.00 | 0.00 | 89 | 1008.4 |
| 20260906050000 | 26 | 103 | 0.0 | 1.6 | 0.00 | 0.00 | 0.00 | 88 | 1008.3 |
| 20260906045500 | 26 | 71 | 1.6 | 1.6 | 0.00 | 0.00 | 0.00 | 88 | 1008.4 |
| 20260906045000 | 26 | 97 | 1.6 | 1.6 | 0.00 | 0.00 | 0.00 | 88 | 1008.4 |
| 20260906044500 | 26 | 121 | 1.6 | 1.6 | 0.00 | 0.00 | 0.00 | 87 | 1008.4 |
| 20260906044000 | 26 | 66 | 1.6 | 1.6 | 0.00 | 0.00 | 0.00 | 87 | 1008.3 |
| 20260906043501 | 26 | 89 | 1.6 | 1.6 | 0.00 | 0.00 | 0.00 | 88 | 1008.3 |
| 20260906043000 | 26 | 117 | 1.6 | 1.6 | 0.00 | 0.00 | 0.00 | 89 | 1008.2 |
| 20260906042500 | 26 | 120 | 1.6 | 3.2 | 0.00 | 0.00 | 0.00 | 89 | 1008.1 |
| 20260906042000 | 26 | 143 | 1.6 | 3.2 | 0.00 | 0.00 | 0.00 | 90 | 1008.1 |
| 20260906041500 | 26 | 163 | 3.2 | 3.2 | 0.00 | 0.00 | 0.00 | 89 | 1008.0 |
| 20260906041000 | 26 | 187 | 1.6 | 1.6 | 0.00 | 0.00 | 0.00 | 89 | 1008.1 |
| 20260906040500 | 26 | 243 | 1.6 | 3.2 | 0.00 | 0.00 | 0.00 | 89 | 1008.1 |
| 20260906040000 | 26 | 284 | 1.6 | 3.2 | 0.00 | 0.00 | 0.00 | 89 | 1008.2 |
| 20260906035500 | 26 | 272 | 1.6 | 3.2 | 0.00 | 0.00 | 0.00 | 88 | 1008.2 |
| 20260906035000 | 26 | 275 | 1.6 | 3.2 | 0.00 | 0.00 | 0.00 | 88 | 1008.2 |
| 20260906034500 | 26 | 267 | 1.6 | 3.2 | 0.00 | 0.00 | 0.00 | 88 | 1008.2 |
| 20260906034000 | 26 | 267 | 1.6 | 3.2 | 0.00 | 0.00 | 0.00 | 87 | 1008.3 |
| 20260906033500 | 26 | 284 | 3.2 | 3.2 | 0.00 | 0.00 | 0.00 | 87 | 1008.3 |
| 20260906033000 | 26 | 290 | 1.6 | 3.2 | 0.00 | 0.00 | 0.00 | 87 | 1008.5 |
| 20260906032500 | 26 | 296 | 1.6 | 3.2 | 0.00 | 0.00 | 0.00 | 87 | 1008.5 |
| 20260906032001 | 26 | 287 | 3.2 | 3.2 | 0.00 | 0.00 | 0.00 | 87 | 1008.6 |
| 20260906031500 | 26 | 305 | 3.2 | 3.2 | 0.00 | 0.00 | 0.00 | 88 | 1008.5 |
| 20260906031000 | 26 | 338 | 1.6 | 1.6 | 0.00 | 0.00 | 0.00 | 88 | 1008.6 |
| 20260906030500 | 26 | 339 | 1.6 | 1.6 | 0.00 | 0.00 | 0.00 | 88 | 1008.6 |
| 20260906030001 | 26 | 324 | 1.6 | 1.6 | 0.00 | 0.00 | 0.00 | 88 | 1008.6 |
| 20260906025500 | 26 | 8 | 0.0 | 1.6 | 0.00 | 0.00 | 0.00 | 88 | 1008.6 |
| 20260906025000 | 26 | 343 | 1.6 | 1.6 | 0.00 | 0.00 | 0.00 | 88 | 1008.6 |
| 20260906024500 | 26 | 316 | 0.0 | 3.2 | 0.00 | 0.00 | 0.00 | 88 | 1008.5 |
| 20260906024000 | 26 | 204 | 1.6 | 3.2 | 0.00 | 0.00 | 0.00 | 87 | 1008.6 |
| 20260906023500 | 26 | 213 | 3.2 | 3.2 | 0.00 | 0.00 | 0.00 | 87 | 1008.6 |
| 20260906023000 | 26 | 231 | 1.6 | 1.6 | 0.00 | 0.00 | 0.00 | 87 | 1008.7 |
| 20260906022500 | 27 | 291 | 0.0 | 1.6 | 0.00 | 0.00 | 0.00 | 86 | 1008.6 |
| 20260906022000 | 27 | 267 | 1.6 | 1.6 | 0.00 | 0.00 | 0.00 | 86 | 1008.6 |
| 20260906021500 | 27 | 263 | 1.6 | 3.2 | 0.00 | 0.00 | 0.00 | 85 | 1008.6 |
| 20260906021000 | 27 | 287 | 1.6 | 4.8 | 0.00 | 0.00 | 0.00 | 85 | 1008.5 |
| 20260906020500 | 27 | 312 | 3.2 | 4.8 | 0.00 | 0.00 | 0.00 | 84 | 1008.5 |
| 20260906020000 | 27 | 324 | 3.2 | 3.2 | 0.00 | 0.00 | 0.00 | 84 | 1008.4 |
| 20260906015500 | 27 | 310 | 1.6 | 3.2 | 0.00 | 0.00 | 0.00 | 84 | 1008.3 |
| 20260906015000 | 27 | 298 | 1.6 | 3.2 | 0.00 | 0.00 | 0.00 | 82 | 1008.2 |
| 20260906014500 | 27 | 295 | 1.6 | 1.6 | 0.00 | 0.00 | 0.00 | 83 | 1008.2 |
| 20260906014000 | 27 | 232 | 1.6 | 1.6 | 0.00 | 0.00 | 0.00 | 83 | 1008.2 |
| 20260906013500 | 27 | 113 | 0.0 | 3.2 | 0.00 | 0.00 | 0.00 | 83 | 1008.0 |
| 20260906013000 | 28 | 3 | 1.6 | 3.2 | 0.00 | 0.00 | 0.00 | 83 | 1008.0 |
| 20260906012500 | 28 | 357 | 1.6 | 1.6 | 0.00 | 0.00 | 0.00 | 84 | 1008.1 |
| 20260906012000 | 28 | 287 | 1.6 | 3.2 | 0.00 | 0.00 | 0.00 | 84 | 1008.0 |
| 20260906011500 | 28 | 282 | 1.6 | 3.2 | 0.00 | 0.00 | 0.00 | 84 | 1008.0 |
| 20260906011000 | 28 | 283 | 3.2 | 3.2 | 0.00 | 0.00 | 0.00 | 82 | 1007.9 |
| 20260906010500 | 28 | 264 | 1.6 | 3.2 | 0.00 | 0.00 | 0.00 | 82 | 1007.8 |
| 20260906010000 | 28 | 209 | 1.6 | 3.2 | 0.00 | 0.00 | 0.00 | 80 | 1007.7 |
| 20260906005500 | 28 | 200 | 1.6 | 1.6 | 0.00 | 0.00 | 0.00 | 79 | 1007.7 |
| 20260906005000 | 29 | 299 | 0.0 | 1.6 | 0.00 | 0.00 | 0.00 | 79 | 1007.7 |
| 20260906004500 | 29 | 188 | 0.0 | 1.6 | 0.00 | 0.00 | 0.00 | 78 | 1007.8 |
| 20260906004000 | 30 | 228 | 1.6 | 3.2 | 0.00 | 0.00 | 0.00 | 76 | 1007.7 |
| 20260906003500 | 30 | 252 | 1.6 | 3.2 | 0.00 | 0.00 | 0.00 | 72 | 1007.8 |
| 20260906003000 | 30 | 331 | 1.6 | 3.2 | 0.00 | 0.00 | 0.00 | 73 | 1007.9 |
| 20260906002500 | 30 | 347 | 3.2 | 3.2 | 0.00 | 0.00 | 0.00 | 71 | 1007.8 |
| 20260906002000 | 30 | 2 | 1.6 | 3.2 | 0.00 | 0.00 | 0.00 | 75 | 1007.9 |
| 20260906001500 | 31 | 43 | 3.2 | 3.2 | 0.00 | 0.00 | 0.00 | 72 | 1008.0 |
| 20260906001000 | 31 | 70 | 3.2 | 3.2 | 0.00 | 0.00 | 0.00 | 69 | 1008.1 |
| 20260906000500 | 32 | 180 | 1.6 | 3.2 | 0.00 | 0.00 | 0.00 | 68 | 1008.1 |
| 20260906000000 | 32 | 187 | 3.2 | 3.2 | 0.00 | 0.00 | 0.00 | 68 | 1008.2 |
| 20260905235500 | 32 | 184 | 1.6 | 3.2 | 0.00 | 0.00 | 0.00 | 69 | 1008.2 |
| 20260905235000 | 32 | 138 | 1.6 | 3.2 | 0.00 | 0.00 | 0.00 | 67 | 1008.3 |
| 20260905234500 | 32 | 86 | 3.2 | 3.2 | 0.00 | 0.00 | 0.00 | 67 | 1008.4 |
| 20260905234000 | 32 | 80 | 3.2 | 4.8 | 0.00 | 0.00 | 0.00 | 66 | 1008.4 |
| 20260905233500 | 33 | 106 | 3.2 | 4.8 | 0.00 | 0.00 | 0.00 | 65 | 1008.4 |
| 20260905233000 | 33 | 82 | 3.2 | 3.2 | 0.00 | 0.00 | 0.00 | 67 | 1008.5 |
| 20260905232500 | 33 | 8 | 1.6 | 3.2 | 0.00 | 0.00 | 0.00 | 63 | 1008.4 |
| 20260905232000 | 33 | 274 | 0.0 | 6.4 | 0.00 | 0.00 | 0.00 | 64 | 1008.4 |
| 20260905231500 | 33 | 66 | 1.6 | 6.4 | 0.00 | 0.00 | 0.00 | 61 | 1008.4 |
| 20260905231000 | 33 | 182 | 6.4 | 9.7 | 0.00 | 0.00 | 0.00 | 58 | 1008.3 |
| 20260905230500 | 33 | 187 | 4.8 | 9.7 | 0.00 | 0.00 | 0.00 | 58 | 1008.3 |
| 20260905230000 | 33 | 195 | 6.4 | 9.7 | 0.00 | 0.00 | 0.00 | 58 | 1008.2 |
| 20260905225500 | 33 | 185 | 6.4 | 9.7 | 0.00 | 0.00 | 0.00 | 57 | 1008.2 |
| 20260905225000 | 33 | 183 | 6.4 | 9.7 | 0.00 | 0.00 | 0.00 | 56 | 1008.2 |
| 20260905224500 | 33 | 189 | 6.4 | 9.7 | 0.00 | 0.00 | 0.00 | 57 | 1008.2 |
| 20260905224000 | 33 | 194 | 6.4 | 11.3 | 0.00 | 0.00 | 0.00 | 58 | 1008.2 |
| 20260905223454 | 33 | 192 | 8.0 | 11.3 | 0.00 | 0.00 | 0.00 | 58 | 1008.1 |
| 20260905222954 | 32 | 148 | 6.4 | 9.7 | 0.00 | 0.00 | 0.00 | 58 | 1008.2 |
| 20260905222454 | 32 | 158 | 3.2 | 8.0 | 0.00 | 0.00 | 0.00 | 59 | 1008.2 |
| 20260905221954 | 32 | 48 | 3.2 | 8.0 | 0.00 | 0.00 | 0.00 | 62 | 1008.2 |
| 20260905221454 | 31 | 161 | 6.4 | 17.7 | 0.00 | 0.00 | 0.00 | 62 | 1008.2 |
| 20260905220954 | 31 | 187 | 8.0 | 19.3 | 0.00 | 0.00 | 0.00 | 63 | 1008.2 |
| 20260905220454 | 31 | 200 | 11.3 | 19.3 | 0.00 | 0.00 | 0.00 | 64 | 1008.2 |
| 20260905215954 | 30 | 173 | 19.3 | 19.3 | 0.00 | 0.00 | 0.00 | 67 | 1008.3 |
| 20260905215454 | 30 | 190 | 11.3 | 22.5 | 0.00 | 0.00 | 0.00 | 69 | 1008.5 |
| 20260905214512 | 32 | 188 | 11.3 | 24.1 | 0.00 | 0.00 | 0.00 | 63 | 1008.7 |
| 20260905213507 | 33 | 161 | 14.5 | 30.6 | 0.00 | 0.00 | 0.00 | 56 | 1008.8 |
| 20260905213000 | 33 | 150 | 19.3 | 30.6 | 0.00 | 0.00 | 0.00 | 54 | 1008.8 |
| 20260905212500 | 33 | 119 | 14.5 | 30.6 | 0.00 | 0.00 | 0.00 | 54 | 1008.9 |
| 20260905212000 | 35 | 151 | 16.1 | 30.6 | 0.00 | 0.00 | 0.00 | 51 | 1008.8 |
| 20260905211500 | 36 | 64 | 6.4 | 12.9 | 0.00 | 0.00 | 0.00 | 43 | 1008.6 |
| 20260905211000 | 36 | 98 | 6.4 | 14.5 | 0.00 | 0.00 | 0.00 | 41 | 1008.7 |
| 20260905210500 | 36 | 84 | 8.0 | 14.5 | 0.00 | 0.00 | 0.00 | 44 | 1008.7 |
| 20260905210000 | 37 | 52 | 9.7 | 14.5 | 0.00 | 0.00 | 0.00 | 43 | 1008.8 |
| 20260905205500 | 37 | 79 | 3.2 | 14.5 | 0.00 | 0.00 | 0.00 | 43 | 1008.8 |
| 20260905205000 | 37 | 54 | 8.0 | 12.9 | 0.00 | 0.00 | 0.00 | 41 | 1008.9 |
| 20260905204500 | 37 | 30 | 3.2 | 12.9 | 0.00 | 0.00 | 0.00 | 43 | 1008.9 |
| 20260905204000 | 37 | 327 | 4.8 | 12.9 | 0.00 | 0.00 | 0.00 | 46 | 1009.0 |
| 20260905203500 | 37 | 39 | 3.2 | 12.9 | 0.00 | 0.00 | 0.00 | 41 | 1009.1 |
| 20260905203000 | 37 | 13 | 8.0 | 12.9 | 0.00 | 0.00 | 0.00 | 43 | 1009.3 |
| 20260905202500 | 37 | 321 | 8.0 | 11.3 | 0.00 | 0.00 | 0.00 | 41 | 1009.3 |
| 20260905202000 | 37 | 91 | 8.0 | 14.5 | 0.00 | 0.00 | 0.00 | 43 | 1009.4 |
| 20260905201500 | 37 | 76 | 4.8 | 16.1 | 0.00 | 0.00 | 0.00 | 43 | 1009.5 |
| 20260905201000 | 37 | 93 | 4.8 | 16.1 | 0.00 | 0.00 | 0.00 | 42 | 1009.5 |
| 20260905200500 | 37 | 101 | 6.4 | 16.1 | 0.00 | 0.00 | 0.00 | 46 | 1009.7 |
| 20260905200000 | 37 | 357 | 9.7 | 16.1 | 0.00 | 0.00 | 0.00 | 44 | 1009.8 |
| 20260905195500 | 37 | 150 | 1.6 | 16.1 | 0.00 | 0.00 | 0.00 | 43 | 1009.9 |
| 20260905195000 | 37 | 226 | 3.2 | 16.1 | 0.00 | 0.00 | 0.00 | 43 | 1009.9 |
| 20260905194500 | 36 | 115 | 4.8 | 16.1 | 0.00 | 0.00 | 0.00 | 44 | 1010.0 |
| 20260905194006 | 36 | 338 | 4.8 | 11.3 | 0.00 | 0.00 | 0.00 | 46 | 1010.1 |
| 20260905193000 | 37 | 312 | 8.0 | 11.3 | 0.00 | 0.00 | 0.00 | 45 | 1010.2 |
| 20260905192500 | 36 | 318 | 4.8 | 12.9 | 0.00 | 0.00 | 0.00 | 47 | 1010.1 |
| 20260905192000 | 36 | 319 | 3.2 | 14.5 | 0.00 | 0.00 | 0.00 | 44 | 1010.2 |
| 20260905191500 | 36 | 355 | 4.8 | 16.1 | 0.00 | 0.00 | 0.00 | 45 | 1010.4 |
| 20260905191000 | 37 | 6 | 12.9 | 17.7 | 0.00 | 0.00 | 0.00 | 43 | 1010.5 |
| 20260905190500 | 37 | 304 | 3.2 | 17.7 | 0.00 | 0.00 | 0.00 | 43 | 1010.5 |
| 20260905190000 | 37 | 316 | 4.8 | 14.5 | 0.00 | 0.00 | 0.00 | 45 | 1010.5 |
| 20260905185500 | 37 | 283 | 3.2 | 9.7 | 0.00 | 0.00 | 0.00 | 45 | 1010.6 |
| 20260905185000 | 36 | 47 | 3.2 | 12.9 | 0.00 | 0.00 | 0.00 | 45 | 1010.6 |
| 20260905184500 | 36 | 323 | 6.4 | 12.9 | 0.00 | 0.00 | 0.00 | 44 | 1010.7 |
| 20260905184000 | 36 | 49 | 11.3 | 11.3 | 0.00 | 0.00 | 0.00 | 48 | 1010.9 |
| 20260905183500 | 37 | 217 | 6.4 | 14.5 | 0.00 | 0.00 | 0.00 | 45 | 1010.9 |
| 20260905183000 | 37 | 93 | 4.8 | 14.5 | 0.00 | 0.00 | 0.00 | 44 | 1011.1 |
| 20260905182500 | 37 | 89 | 4.8 | 9.7 | 0.00 | 0.00 | 0.00 | 44 | 1011.1 |
| 20260905182000 | 36 | 191 | 3.2 | 11.3 | 0.00 | 0.00 | 0.00 | 39 | 1011.0 |
| 20260905181501 | 36 | 49 | 9.7 | 11.3 | 0.00 | 0.00 | 0.00 | 40 | 1011.0 |
| 20260905181000 | 36 | 338 | 4.8 | 14.5 | 0.00 | 0.00 | 0.00 | 41 | 1011.1 |
| 20260905180500 | 36 | 331 | 8.0 | 14.5 | 0.00 | 0.00 | 0.00 | 44 | 1011.1 |
| 20260905180000 | 35 | 304 | 9.7 | 14.5 | 0.00 | 0.00 | 0.00 | 45 | 1011.1 |
| 20260905175500 | 35 | 315 | 3.2 | 14.5 | 0.00 | 0.00 | 0.00 | 44 | 1011.2 |
| 20260905175000 | 35 | 310 | 12.9 | 14.5 | 0.00 | 0.00 | 0.00 | 45 | 1011.2 |
| 20260905174500 | 35 | 324 | 9.7 | 14.5 | 0.00 | 0.00 | 0.00 | 46 | 1011.3 |
| 20260905174000 | 35 | 310 | 9.7 | 14.5 | 0.00 | 0.00 | 0.00 | 44 | 1011.3 |
| 20260905173500 | 36 | 350 | 6.4 | 14.5 | 0.00 | 0.00 | 0.00 | 46 | 1011.4 |
| 20260905173001 | 35 | 266 | 11.3 | 14.5 | 0.00 | 0.00 | 0.00 | 46 | 1011.3 |
| 20260905172500 | 35 | 228 | 1.6 | 16.1 | 0.00 | 0.00 | 0.00 | 44 | 1011.5 |
| 20260905172000 | 35 | 326 | 4.8 | 16.1 | 0.00 | 0.00 | 0.00 | 46 | 1011.5 |
| 20260905171500 | 35 | 273 | 4.8 | 12.9 | 0.00 | 0.00 | 0.00 | 46 | 1011.7 |
| 20260905171000 | 35 | 294 | 3.2 | 12.9 | 0.00 | 0.00 | 0.00 | 46 | 1011.8 |
| 20260905170500 | 35 | 286 | 1.6 | 14.5 | 0.00 | 0.00 | 0.00 | 42 | 1011.8 |
| 20260905170000 | 36 | 291 | 4.8 | 14.5 | 0.00 | 0.00 | 0.00 | 43 | 1011.9 |
| 20260905165500 | 35 | 328 | 8.0 | 12.9 | 0.00 | 0.00 | 0.00 | 45 | 1011.9 |
| 20260905165000 | 35 | 359 | 3.2 | 16.1 | 0.00 | 0.00 | 0.00 | 43 | 1011.9 |
| 20260905164500 | 35 | 19 | 6.4 | 16.1 | 0.00 | 0.00 | 0.00 | 45 | 1012.0 |
| 20260905164000 | 35 | 14 | 6.4 | 9.7 | 0.00 | 0.00 | 0.00 | 43 | 1012.1 |
| 20260905163500 | 35 | 315 | 3.2 | 16.1 | 0.00 | 0.00 | 0.00 | 47 | 1012.1 |
| 20260905163000 | 35 | 273 | 3.2 | 16.1 | 0.00 | 0.00 | 0.00 | 49 | 1012.1 |
| 20260905162500 | 35 | 323 | 6.4 | 11.3 | 0.00 | 0.00 | 0.00 | 49 | 1012.2 |
| 20260905162000 | 35 | 328 | 3.2 | 12.9 | 0.00 | 0.00 | 0.00 | 50 | 1012.3 |
| 20260905161500 | 34 | 337 | 8.0 | 12.9 | 0.00 | 0.00 | 0.00 | 50 | 1012.2 |
| 20260905161000 | 34 | 329 | 6.4 | 14.5 | 0.00 | 0.00 | 0.00 | 50 | 1012.2 |
| 20260905160501 | 34 | 340 | 6.4 | 14.5 | 0.00 | 0.00 | 0.00 | 52 | 1012.2 |
| 20260905160000 | 33 | 348 | 4.8 | 12.9 | 0.00 | 0.00 | 0.00 | 50 | 1012.2 |